Weather History for Herat, Afghanistan

Change the Weather History Date:

Friday, February 15, 2013

  Actual Average Record
Temperature  
Mean Temperature 44 °F -  
Max Temperature 51 °F 58 °F - ()
Min Temperature 37 °F 35 °F - ()
Degree Days  
Heating Degree Days 21    
Moisture  
Dew Point 23 °F    
Average Humidity 49    
Maximum Humidity 70    
Minimum Humidity 33    
Precipitation  
Precipitation 0.00 in 0.07 in - ()
Sea Level Pressure  
Sea Level Pressure 30.13 in    
Wind  
Wind Speed 9 mph ()    
Max Wind Speed 15 mph    
Max Gust Speed 26 mph    
Visibility 5.8 miles    
Events      
T = Trace of Precipitation, MM = Missing Value Source: Averaged Metar Reports

Daily Weather History Graph

Daily Weather History Graph

Search for Another Location

Airport:

Trip Planner

Search our weather history database for the weather conditions in past years. The results will help you decide how hot, cold, wet, or windy it might be!

Date:

Astronomy

Feb. 15, 2013 Rise Set
Actual Time 7:06 AM AFT 6:04 PM AFT
Civil Twilight 6:40 AM AFT 6:30 PM AFT
Nautical Twilight 6:11 AM AFT 6:59 PM AFT
Astronomical Twilight 5:42 AM AFT 7:28 PM AFT
Moon 9:44 AM AFT 11:23 PM AFT
Length of Visible Light 11h 49m
Length of Day
10h 58m
Waxing Crescent, 26% of the Moon is Illuminated
Feb 15
Waxing Crescent
Feb 18
First Quarter
Feb 26
Full
Mar 5
Last Quarter
Mar 12
New

Hourly Weather History & Observations

Time (AFT) Temp. Windchill Dew Point Humidity Pressure Visibility Wind Dir Wind Speed Gust Speed Precip Events Conditions
12:24 AM 39.2 °F 35.0 °F 30.2 °F 70% 30.12 in 6.2 mi NNW 5.8 mph - N/A   Overcast
1:24 AM 39.2 °F 32.0 °F 24.8 °F 56% 30.12 in - North 11.5 mph - N/A   Clear
2:25 AM 37.4 °F 28.5 °F 24.8 °F 60% 30.09 in 6.2 mi NNW 15.0 mph - N/A   Overcast
3:25 AM 37.4 °F 29.8 °F 24.8 °F 60% 30.09 in 6.2 mi North 11.5 mph - N/A   Mostly Cloudy
4:24 AM 37.4 °F 29.3 °F 24.8 °F 60% 30.09 in - North 12.7 mph 26.5 mph N/A   Clear
5:24 AM 37.4 °F 29.3 °F 24.8 °F 60% 30.12 in 6.2 mi North 12.7 mph 24.2 mph N/A   Unknown
6:24 AM 39.2 °F 31.6 °F 23.0 °F 52% 30.15 in - North 12.7 mph - N/A   Clear
7:25 AM 37.4 °F 29.3 °F 17.6 °F 45% 30.15 in - North 12.7 mph - N/A   Clear
8:24 AM 39.2 °F 32.0 °F 17.6 °F 42% 30.18 in - North 11.5 mph - N/A   Clear
9:25 AM 41.0 °F 34.3 °F 17.6 °F 39% 30.21 in - North 11.5 mph - N/A   Clear
10:25 AM 44.6 °F 38.4 °F 19.4 °F 37% 30.18 in - North 12.7 mph 24.2 mph N/A   Clear
11:25 AM 46.4 °F 41.1 °F 21.2 °F 37% 30.18 in - NNW 11.5 mph - N/A   Clear
12:25 PM 50.0 °F - 23.0 °F 35% 30.15 in - NNW 9.2 mph - N/A   Clear
1:25 PM 51.8 °F - 24.8 °F 35% 30.12 in - NNW 6.9 mph - N/A   Clear
2:25 PM 51.8 °F - 28.4 °F 41% 30.12 in - West 8.1 mph - N/A   Clear
3:25 PM 51.8 °F - 23.0 °F 33% 30.09 in - WSW 11.5 mph - N/A   Clear
4:25 PM 50.0 °F - 23.0 °F 35% 30.09 in - WSW 10.4 mph - N/A   Clear
5:25 PM 46.4 °F 41.5 °F 21.2 °F 37% 30.12 in 4.3 mi WSW 10.4 mph - N/A   Unknown
6:25 PM 42.8 °F 37.5 °F 23.0 °F 46% 30.12 in - WSW 9.2 mph - N/A   Clear
7:25 PM 41.0 °F 36.4 °F 24.8 °F 53% 30.15 in - WSW 6.9 mph - N/A   Clear
8:25 PM 39.2 °F 33.6 °F 24.8 °F 56% 30.15 in - SW 8.1 mph - N/A   Clear
9:25 PM 39.2 °F 35.0 °F 24.8 °F 56% 30.15 in - SSW 5.8 mph - N/A   Clear
10:25 PM 39.2 °F 35.0 °F 24.8 °F 56% 30.15 in - SW 5.8 mph - N/A   Clear
11:25 PM 37.4 °F 33.8 °F 26.6 °F 65% 30.15 in - SW 4.6 mph - N/A   Clear